nws-alerts: Checking more than four warning/county codes can delay the loading of your pages. You should use a cron job to get the data.
EllijayWeather Historical Data
Daily Summary for April 15, 2020 Units:  English    Metric   Both
Daily Weekly Monthly Yearly
  High: Low: Average:
Temperature: 60.0 °F 37.0 °F 47.4 °F
Dew Point: 35.0 °F 21.0 °F 28 °F
Humidity: 76% 24% 50%
Wind Speed: 17mph 0mph 3.9mph
Wind Gust: 17mph - -
Wind- - West
Pressure: 30.2 in 30.0 in -
Precipitation: 0.000 in    
 
 
Tabular Data for April 15, 2020
Time Temperature Dew Point Pressure Wind Wind Speed Wind Gust Humidity Rainfall Rate (Hourly)
00:04 45.0 °F 35.0 °F 30.1 in NNW 5 mph 5 mph 67% 0.000 in
00:09 45.0 °F 34.0 °F 30.1 in NW 5 mph 12 mph 66% 0.000 in
00:14 45.0 °F 34.0 °F 30.1 in North 2 mph 5 mph 66% 0.000 in
00:19 45.0 °F 34.0 °F 30.1 in NNW 6 mph 7 mph 65% 0.000 in
00:24 45.0 °F 34.0 °F 30.1 in NNW 6 mph 7 mph 65% 0.000 in
00:29 45.0 °F 34.0 °F 30.1 in North 2 mph 7 mph 65% 0.000 in
00:34 45.0 °F 34.0 °F 30.1 in North 3 mph 5 mph 64% 0.000 in
00:39 45.0 °F 33.0 °F 30.1 in NNW 6 mph 9 mph 64% 0.000 in
00:44 45.0 °F 34.0 °F 30.1 in NNE 2 mph 9 mph 64% 0.000 in
00:49 45.0 °F 34.0 °F 30.1 in NNW 9 mph 9 mph 64% 0.000 in
00:54 45.0 °F 33.0 °F 30.1 in North 2 mph 11 mph 63% 0.000 in
00:59 45.0 °F 33.0 °F 30.1 in NW 1 mph 6 mph 64% 0.000 in
01:04 45.0 °F 33.0 °F 30.1 in NW 5 mph 7 mph 64% 0.000 in
01:09 45.0 °F 33.0 °F 30.1 in WNW 12 mph 14 mph 64% 0.000 in
01:14 45.0 °F 34.0 °F 30.1 in NW 5 mph 7 mph 65% 0.000 in
01:19 45.0 °F 34.0 °F 30.1 in NNW 5 mph 10 mph 65% 0.000 in
01:24 45.0 °F 34.0 °F 30.1 in NW 5 mph 10 mph 65% 0.000 in
01:29 44.0 °F 34.0 °F 30.1 in NNW 6 mph 7 mph 66% 0.000 in
01:34 44.0 °F 34.0 °F 30.1 in NW 5 mph 10 mph 66% 0.000 in
01:39 44.0 °F 33.0 °F 30.1 in North 9 mph 15 mph 65% 0.000 in
01:44 44.0 °F 33.0 °F 30.1 in North 4 mph 15 mph 66% 0.000 in
01:49 44.0 °F 33.0 °F 30.1 in NW 9 mph 10 mph 66% 0.000 in
01:54 44.0 °F 33.0 °F 30.1 in NNW 6 mph 10 mph 65% 0.000 in
01:59 44.0 °F 33.0 °F 30.1 in NW 4 mph 7 mph 66% 0.000 in
02:04 43.0 °F 32.0 °F 30.1 in NW 6 mph 12 mph 65% 0.000 in
02:09 43.0 °F 32.0 °F 30.1 in NNW 3 mph 10 mph 65% 0.000 in
02:14 43.0 °F 32.0 °F 30.1 in NNW 4 mph 8 mph 65% 0.000 in
02:19 43.0 °F 32.0 °F 30.1 in NW 5 mph 9 mph 64% 0.000 in
02:24 43.0 °F 32.0 °F 30.1 in North 4 mph 9 mph 64% 0.000 in
02:29 43.0 °F 31.0 °F 30.1 in NW 5 mph 8 mph 63% 0.000 in
02:34 43.0 °F 32.0 °F 30.1 in West 5 mph 6 mph 65% 0.000 in
02:39 42.0 °F 31.0 °F 30.1 in NW 4 mph 7 mph 64% 0.000 in
02:44 42.0 °F 31.0 °F 30.1 in NW 3 mph 7 mph 63% 0.000 in
02:49 42.0 °F 31.0 °F 30.1 in NW 4 mph 7 mph 64% 0.000 in
02:54 42.0 °F 31.0 °F 30.1 in NNW 4 mph 11 mph 64% 0.000 in
02:59 42.0 °F 31.0 °F 30.1 in North 5 mph 7 mph 63% 0.000 in
03:04 42.0 °F 31.0 °F 30.1 in NW 9 mph 10 mph 64% 0.000 in
03:09 42.0 °F 31.0 °F 30.1 in NW 3 mph 10 mph 64% 0.000 in
03:14 42.0 °F 31.0 °F 30.1 in NNW 5 mph 5 mph 65% 0.000 in
03:19 42.0 °F 31.0 °F 30.0 in NW 5 mph 8 mph 65% 0.000 in
03:24 42.0 °F 31.0 °F 30.0 in NW 3 mph 8 mph 66% 0.000 in
03:29 42.0 °F 31.0 °F 30.0 in NW 6 mph 13 mph 66% 0.000 in
03:34 42.0 °F 31.0 °F 30.0 in NNW 5 mph 13 mph 66% 0.000 in
03:39 42.0 °F 31.0 °F 30.0 in NNW 6 mph 7 mph 67% 0.000 in
03:44 41.0 °F 31.0 °F 30.0 in WNW 6 mph 11 mph 66% 0.000 in
03:49 41.0 °F 31.0 °F 30.0 in North 8 mph 11 mph 66% 0.000 in
03:54 41.0 °F 31.0 °F 30.0 in NW 5 mph 9 mph 67% 0.000 in
03:59 41.0 °F 31.0 °F 30.0 in NW 5 mph 7 mph 66% 0.000 in
04:04 41.0 °F 31.0 °F 30.0 in NW 3 mph 5 mph 66% 0.000 in
04:09 41.0 °F 31.0 °F 30.0 in North 3 mph 8 mph 66% 0.000 in
04:14 41.0 °F 30.0 °F 30.0 in NW 11 mph 12 mph 66% 0.000 in
04:19 41.0 °F 31.0 °F 30.0 in NNW 6 mph 7 mph 67% 0.000 in
04:24 41.0 °F 31.0 °F 30.0 in NNW 2 mph 7 mph 67% 0.000 in
04:29 41.0 °F 30.0 °F 30.0 in North 5 mph 5 mph 67% 0.000 in
04:34 41.0 °F 30.0 °F 30.0 in North 7 mph 11 mph 67% 0.000 in
04:39 40.0 °F 30.0 °F 30.0 in NNW 4 mph 11 mph 67% 0.000 in
04:44 40.0 °F 30.0 °F 30.0 in WNW 7 mph 12 mph 68% 0.000 in
04:49 40.0 °F 31.0 °F 30.0 in NW 2 mph 12 mph 69% 0.000 in
04:54 40.0 °F 30.0 °F 30.0 in WNW 5 mph 7 mph 69% 0.000 in
04:59 40.0 °F 30.0 °F 30.0 in NNW 7 mph 10 mph 69% 0.000 in
05:04 40.0 °F 31.0 °F 30.0 in NNW 7 mph 7 mph 70% 0.000 in
05:09 40.0 °F 31.0 °F 30.0 in NNW 6 mph 7 mph 70% 0.000 in
05:14 39.0 °F 30.0 °F 30.0 in NNE 7 mph 12 mph 70% 0.000 in
05:19 39.0 °F 31.0 °F 30.0 in NNE 2 mph 7 mph 71% 0.000 in
05:24 39.0 °F 31.0 °F 30.0 in ENE 6 mph 11 mph 71% 0.000 in
05:29 39.0 °F 31.0 °F 30.0 in North 5 mph 9 mph 72% 0.000 in
05:34 39.0 °F 31.0 °F 30.0 in NNE 6 mph 9 mph 72% 0.000 in
05:39 39.0 °F 31.0 °F 30.0 in NW 7 mph 7 mph 73% 0.000 in
05:44 39.0 °F 31.0 °F 30.0 in NNW 6 mph 9 mph 72% 0.000 in
05:49 39.0 °F 30.0 °F 30.0 in NNW 1 mph 6 mph 71% 0.000 in
05:54 39.0 °F 30.0 °F 30.0 in North 11 mph 13 mph 71% 0.000 in
05:59 39.0 °F 30.0 °F 30.0 in NNW 4 mph 10 mph 69% 0.000 in
06:04 39.0 °F 30.0 °F 30.0 in NNW 4 mph 7 mph 69% 0.000 in
06:09 39.0 °F 29.0 °F 30.1 in North 8 mph 15 mph 68% 0.000 in
06:14 39.0 °F 29.0 °F 30.0 in NW 17 mph 17 mph 68% 0.000 in
06:19 39.0 °F 29.0 °F 30.1 in NW 4 mph 17 mph 67% 0.000 in
06:24 39.0 °F 28.0 °F 30.1 in NNW 10 mph 16 mph 66% 0.000 in
06:29 39.0 °F 28.0 °F 30.1 in WNW 7 mph 16 mph 65% 0.000 in
06:34 39.0 °F 28.0 °F 30.1 in North 3 mph 8 mph 65% 0.000 in
06:39 39.0 °F 28.0 °F 30.1 in NW 8 mph 12 mph 65% 0.000 in
06:44 39.0 °F 28.0 °F 30.1 in WNW 5 mph 17 mph 64% 0.000 in
06:49 39.0 °F 28.0 °F 30.1 in NNW 3 mph 10 mph 64% 0.000 in
06:54 39.0 °F 28.0 °F 30.1 in North 5 mph 6 mph 64% 0.000 in
06:59 39.0 °F 28.0 °F 30.1 in NW 6 mph 12 mph 64% 0.000 in
07:04 39.0 °F 27.0 °F 30.1 in West 7 mph 11 mph 63% 0.000 in
07:09 39.0 °F 27.0 °F 30.1 in NNW 11 mph 13 mph 63% 0.000 in
07:14 39.0 °F 27.0 °F 30.1 in NNW 8 mph 9 mph 63% 0.000 in
07:19 39.0 °F 28.0 °F 30.1 in NNW 5 mph 5 mph 64% 0.000 in
07:24 39.0 °F 27.0 °F 30.1 in WNW 5 mph 11 mph 63% 0.000 in
07:29 39.0 °F 27.0 °F 30.1 in WNW 5 mph 6 mph 63% 0.000 in
07:34 39.0 °F 27.0 °F 30.1 in NW 10 mph 14 mph 63% 0.000 in
07:39 39.0 °F 27.0 °F 30.1 in NNW 11 mph 12 mph 63% 0.000 in
07:44 39.0 °F 27.0 °F 30.1 in NW 9 mph 12 mph 62% 0.000 in
07:49 39.0 °F 27.0 °F 30.1 in WNW 7 mph 12 mph 63% 0.000 in
07:54 39.0 °F 27.0 °F 30.1 in NNW 9 mph 13 mph 63% 0.000 in
07:59 39.0 °F 27.0 °F 30.1 in North 9 mph 10 mph 62% 0.000 in
08:04 39.0 °F 27.0 °F 30.1 in NW 7 mph 9 mph 62% 0.000 in
08:09 39.0 °F 27.0 °F 30.1 in NNW 7 mph 11 mph 63% 0.000 in
08:14 39.0 °F 27.0 °F 30.1 in NW 7 mph 12 mph 62% 0.000 in
08:19 39.0 °F 27.0 °F 30.1 in NNW 6 mph 12 mph 62% 0.000 in
08:24 39.0 °F 27.0 °F 30.1 in NNW 4 mph 12 mph 62% 0.000 in
08:29 39.0 °F 27.0 °F 30.1 in NNW 13 mph 13 mph 61% 0.000 in
08:34 39.0 °F 27.0 °F 30.1 in NNE 10 mph 11 mph 61% 0.000 in
08:39 40.0 °F 27.0 °F 30.1 in North 5 mph 11 mph 60% 0.000 in
08:44 40.0 °F 27.0 °F 30.1 in NNW 6 mph 11 mph 60% 0.000 in
08:49 40.0 °F 27.0 °F 30.1 in NNW 6 mph 13 mph 60% 0.000 in
08:54 40.0 °F 27.0 °F 30.1 in NNE 11 mph 11 mph 60% 0.000 in
08:59 40.0 °F 27.0 °F 30.1 in NNW 5 mph 9 mph 59% 0.000 in
09:04 40.0 °F 27.0 °F 30.1 in NNW 8 mph 9 mph 59% 0.000 in
09:09 40.0 °F 27.0 °F 30.1 in NW 17 mph 17 mph 59% 0.000 in
09:14 41.0 °F 27.0 °F 30.1 in NW 8 mph 11 mph 59% 0.000 in
09:19 41.0 °F 27.0 °F 30.1 in NNW 8 mph 10 mph 58% 0.000 in
09:24 41.0 °F 27.0 °F 30.1 in NNW 6 mph 9 mph 58% 0.000 in
09:29 41.0 °F 27.0 °F 30.1 in NNW 6 mph 9 mph 57% 0.000 in
09:34 41.0 °F 27.0 °F 30.1 in NNW 3 mph 10 mph 57% 0.000 in
09:39 42.0 °F 27.0 °F 30.1 in WNW 8 mph 10 mph 56% 0.000 in
09:44 42.0 °F 27.0 °F 30.1 in NW 6 mph 8 mph 56% 0.000 in
09:49 42.0 °F 27.0 °F 30.1 in North 4 mph 10 mph 55% 0.000 in
09:54 42.0 °F 28.0 °F 30.1 in NNW 15 mph 15 mph 55% 0.000 in
09:59 43.0 °F 28.0 °F 30.1 in NNW 7 mph 15 mph 55% 0.000 in
10:04 43.0 °F 28.0 °F 30.1 in NNE 8 mph 15 mph 54% 0.000 in
10:09 43.0 °F 28.0 °F 30.1 in NNW 11 mph 11 mph 54% 0.000 in
10:14 44.0 °F 28.0 °F 30.1 in NW 8 mph 10 mph 53% 0.000 in
10:19 44.0 °F 28.0 °F 30.1 in NNW 10 mph 10 mph 54% 0.000 in
10:24 44.0 °F 28.0 °F 30.1 in WNW 9 mph 10 mph 51% 0.000 in
10:29 45.0 °F 28.0 °F 30.1 in SW 4 mph 10 mph 52% 0.000 in
10:34 45.0 °F 28.0 °F 30.1 in NW 4 mph 8 mph 50% 0.000 in
10:39 46.0 °F 28.0 °F 30.1 in NW 9 mph 11 mph 49% 0.000 in
10:44 46.0 °F 28.0 °F 30.1 in NW 8 mph 8 mph 49% 0.000 in
10:49 46.0 °F 28.0 °F 30.1 in NE 4 mph 8 mph 48% 0.000 in
10:54 47.0 °F 27.0 °F 30.1 in North 7 mph 8 mph 46% 0.000 in
10:59 48.0 °F 28.0 °F 30.1 in NE 5 mph 8 mph 47% 0.000 in
11:04 48.0 °F 27.0 °F 30.1 in NW 7 mph 7 mph 44% 0.000 in
11:09 49.0 °F 26.0 °F 30.1 in NW 6 mph 8 mph 42% 0.000 in
11:14 49.0 °F 27.0 °F 30.1 in NW 4 mph 11 mph 43% 0.000 in
11:19 49.0 °F 28.0 °F 30.1 in North 5 mph 9 mph 44% 0.000 in
11:24 50.0 °F 26.0 °F 30.1 in NNW 3 mph 6 mph 41% 0.000 in
11:29 50.0 °F 28.0 °F 30.1 in NNW 6 mph 7 mph 43% 0.000 in
11:34 50.0 °F 26.0 °F 30.1 in East 4 mph 9 mph 40% 0.000 in
11:39 50.0 °F 28.0 °F 30.1 in NNE 4 mph 7 mph 42% 0.000 in
11:44 50.0 °F 28.0 °F 30.1 in North 5 mph 10 mph 42% 0.000 in
11:49 51.0 °F 26.0 °F 30.1 in NNE 3 mph 7 mph 39% 0.000 in
11:54 51.0 °F 27.0 °F 30.1 in North 4 mph 12 mph 40% 0.000 in
11:59 51.0 °F 26.0 °F 30.1 in NNW 4 mph 6 mph 38% 0.000 in
12:04 51.0 °F 26.0 °F 30.1 in NNW 3 mph 5 mph 38% 0.000 in
12:09 51.0 °F 26.0 °F 30.1 in NNE 2 mph 4 mph 38% 0.000 in
12:14 51.0 °F 26.0 °F 30.1 in NNW 7 mph 9 mph 38% 0.000 in
12:19 51.0 °F 26.0 °F 30.1 in North 6 mph 8 mph 38% 0.000 in
12:24 51.0 °F 26.0 °F 30.1 in NNW 4 mph 6 mph 38% 0.000 in
12:29 51.0 °F 26.0 °F 30.1 in NNW 2 mph 7 mph 38% 0.000 in
12:34 51.0 °F 27.0 °F 30.1 in WNW 5 mph 6 mph 38% 0.000 in
12:39 52.0 °F 27.0 °F 30.1 in NW 2 mph 5 mph 38% 0.000 in
12:44 52.0 °F 27.0 °F 30.1 in North 1 mph 3 mph 37% 0.000 in
12:49 53.0 °F 27.0 °F 30.1 in NNE 4 mph 7 mph 36% 0.000 in
12:54 53.0 °F 27.0 °F 30.1 in North 4 mph 6 mph 36% 0.000 in
12:59 54.0 °F 26.0 °F 30.1 in NW 4 mph 6 mph 35% 0.000 in
13:04 54.0 °F 28.0 °F 30.1 in NW 5 mph 8 mph 37% 0.000 in
13:09 54.0 °F 27.0 °F 30.1 in NE 5 mph 9 mph 35% 0.000 in
13:14 54.0 °F 28.0 °F 30.1 in NNW 3 mph 7 mph 36% 0.000 in
13:19 54.0 °F 27.0 °F 30.1 in North 2 mph 5 mph 35% 0.000 in
13:24 55.0 °F 28.0 °F 30.1 in North 4 mph 5 mph 35% 0.000 in
13:29 55.0 °F 26.0 °F 30.1 in North 6 mph 8 mph 33% 0.000 in
13:34 56.0 °F 26.0 °F 30.1 in NNE 5 mph 8 mph 32% 0.000 in
13:39 56.0 °F 27.0 °F 30.1 in NW 5 mph 5 mph 33% 0.000 in
13:44 56.0 °F 26.0 °F 30.1 in NNW 3 mph 5 mph 32% 0.000 in
13:49 57.0 °F 26.0 °F 30.1 in NNE 7 mph 8 mph 31% 0.000 in
13:54 57.0 °F 27.0 °F 30.1 in NW 5 mph 8 mph 31% 0.000 in
13:59 57.0 °F 28.0 °F 30.1 in WNW 3 mph 7 mph 32% 0.000 in
14:04 58.0 °F 28.0 °F 30.1 in NNW 4 mph 5 mph 32% 0.000 in
14:09 58.0 °F 25.0 °F 30.1 in North 2 mph 5 mph 28% 0.000 in
14:14 58.0 °F 27.0 °F 30.1 in NW 3 mph 5 mph 31% 0.000 in
14:19 58.0 °F 26.0 °F 30.1 in NNW 6 mph 9 mph 29% 0.000 in
14:24 58.0 °F 25.0 °F 30.1 in NW 3 mph 6 mph 29% 0.000 in
14:29 57.0 °F 25.0 °F 30.1 in NNW 4 mph 4 mph 29% 0.000 in
14:34 58.0 °F 28.0 °F 30.1 in NNW 3 mph 4 mph 31% 0.000 in
14:39 59.0 °F 28.0 °F 30.1 in NW 4 mph 8 mph 31% 0.000 in
14:44 59.0 °F 27.0 °F 30.1 in NNE 2 mph 4 mph 30% 0.000 in
14:49 58.0 °F 27.0 °F 30.1 in NE 5 mph 6 mph 30% 0.000 in
14:54 58.0 °F 27.0 °F 30.1 in NW 2 mph 7 mph 30% 0.000 in
14:59 58.0 °F 26.0 °F 30.1 in NE 2 mph 4 mph 29% 0.000 in
15:04 58.0 °F 27.0 °F 30.1 in NNW 3 mph 5 mph 30% 0.000 in
15:09 58.0 °F 26.0 °F 30.1 in NNW 4 mph 4 mph 29% 0.000 in
15:14 58.0 °F 26.0 °F 30.1 in NNE 6 mph 8 mph 29% 0.000 in
15:19 59.0 °F 28.0 °F 30.1 in NW 4 mph 8 mph 31% 0.000 in
15:24 59.0 °F 27.0 °F 30.1 in NNW 3 mph 6 mph 30% 0.000 in
15:29 59.0 °F 26.0 °F 30.1 in NNW 6 mph 7 mph 28% 0.000 in
15:34 59.0 °F 26.0 °F 30.1 in ENE 4 mph 6 mph 29% 0.000 in
15:39 59.0 °F 26.0 °F 30.1 in NNW 6 mph 6 mph 29% 0.000 in
15:44 59.0 °F 27.0 °F 30.1 in NNE 3 mph 6 mph 29% 0.000 in
15:49 59.0 °F 27.0 °F 30.1 in North 5 mph 6 mph 29% 0.000 in
15:54 59.0 °F 26.0 °F 30.1 in NNW 2 mph 4 mph 28% 0.000 in
15:59 59.0 °F 26.0 °F 30.1 in NNW 4 mph 7 mph 28% 0.000 in
16:04 59.0 °F 26.0 °F 30.1 in NNW 7 mph 8 mph 28% 0.000 in
16:09 59.0 °F 25.0 °F 30.1 in NW 3 mph 8 mph 27% 0.000 in
16:14 59.0 °F 25.0 °F 30.1 in NE 4 mph 6 mph 27% 0.000 in
16:19 59.0 °F 26.0 °F 30.1 in WNW 2 mph 6 mph 28% 0.000 in
16:24 59.0 °F 26.0 °F 30.1 in NW 5 mph 7 mph 28% 0.000 in
16:29 59.0 °F 23.0 °F 30.1 in NW 2 mph 4 mph 25% 0.000 in
16:34 59.0 °F 24.0 °F 30.1 in NW 5 mph 10 mph 26% 0.000 in
16:39 59.0 °F 24.0 °F 30.1 in NNE 12 mph 12 mph 26% 0.000 in
16:44 59.0 °F 25.0 °F 30.1 in NE 1 mph 4 mph 27% 0.000 in
16:49 59.0 °F 24.0 °F 30.1 in NW 5 mph 5 mph 26% 0.000 in
16:54 59.0 °F 25.0 °F 30.1 in NW 4 mph 5 mph 27% 0.000 in
16:59 59.0 °F 24.0 °F 30.1 in NNW 4 mph 7 mph 26% 0.000 in
17:04 59.0 °F 24.0 °F 30.1 in WNW 7 mph 7 mph 25% 0.000 in
17:09 60.0 °F 24.0 °F 30.1 in Calm     25% 0.000 in
17:14 60.0 °F 24.0 °F 30.1 in Calm     25% 0.000 in
17:19 60.0 °F 24.0 °F 30.1 in Calm     25% 0.000 in
17:24 59.0 °F 23.0 °F 30.1 in Calm     25% 0.000 in
17:29 59.0 °F 23.0 °F 30.1 in Calm     25% 0.000 in
17:34 59.0 °F 22.0 °F 30.1 in Calm     24% 0.000 in
17:39 59.0 °F 22.0 °F 30.1 in Calm     24% 0.000 in
17:44 59.0 °F 23.0 °F 30.1 in Calm     25% 0.000 in
17:49 59.0 °F 24.0 °F 30.1 in Calm     26% 0.000 in
17:54 59.0 °F 22.0 °F 30.1 in Calm     24% 0.000 in
17:59 59.0 °F 23.0 °F 30.1 in Calm     25% 0.000 in
18:04 58.0 °F 23.0 °F 30.1 in Calm     25% 0.000 in
18:09 58.0 °F 26.0 °F 30.1 in Calm     29% 0.000 in
18:14 58.0 °F 23.0 °F 30.1 in Calm     26% 0.000 in
18:19 58.0 °F 22.0 °F 30.1 in Calm     25% 0.000 in
18:24 58.0 °F 23.0 °F 30.1 in Calm     26% 0.000 in
18:29 57.0 °F 23.0 °F 30.1 in Calm     26% 0.000 in
18:34 57.0 °F 23.0 °F 30.1 in Calm     26% 0.000 in
18:39 57.0 °F 23.0 °F 30.1 in Calm     26% 0.000 in
18:44 57.0 °F 23.0 °F 30.1 in Calm     26% 0.000 in
18:49 57.0 °F 24.0 °F 30.1 in Calm     28% 0.000 in
18:54 57.0 °F 23.0 °F 30.1 in Calm     27% 0.000 in
18:59 56.0 °F 23.0 °F 30.1 in Calm     28% 0.000 in
19:04 56.0 °F 22.0 °F 30.1 in Calm     26% 0.000 in
19:09 56.0 °F 21.0 °F 30.1 in Calm     26% 0.000 in
19:14 56.0 °F 22.0 °F 30.1 in Calm     27% 0.000 in
19:19 56.0 °F 23.0 °F 30.1 in Calm     28% 0.000 in
19:24 55.0 °F 24.0 °F 30.1 in Calm     29% 0.000 in
19:29 55.0 °F 23.0 °F 30.1 in Calm     28% 0.000 in
19:34 55.0 °F 23.0 °F 30.1 in Calm     29% 0.000 in
19:39 55.0 °F 23.0 °F 30.1 in Calm     29% 0.000 in
19:44 55.0 °F 24.0 °F 30.1 in Calm     30% 0.000 in
19:49 54.0 °F 24.0 °F 30.1 in Calm     30% 0.000 in
19:54 54.0 °F 25.0 °F 30.1 in Calm     32% 0.000 in
19:59 54.0 °F 24.0 °F 30.1 in Calm     31% 0.000 in
20:04 53.0 °F 24.0 °F 30.1 in Calm     32% 0.000 in
20:09 53.0 °F 25.0 °F 30.1 in Calm     33% 0.000 in
20:14 53.0 °F 26.0 °F 30.1 in Calm     35% 0.000 in
20:19 52.0 °F 25.0 °F 30.1 in Calm     35% 0.000 in
20:24 52.0 °F 26.0 °F 30.1 in Calm     36% 0.000 in
20:29 52.0 °F 27.0 °F 30.1 in Calm     38% 0.000 in
20:34 51.0 °F 27.0 °F 30.1 in Calm     40% 0.000 in
20:39 51.0 °F 27.0 °F 30.1 in Calm     40% 0.000 in
20:44 50.0 °F 28.0 °F 30.1 in Calm     43% 0.000 in
20:49 50.0 °F 28.0 °F 30.1 in Calm     44% 0.000 in
20:54 49.0 °F 29.0 °F 30.1 in Calm     46% 0.000 in
20:59 48.0 °F 28.0 °F 30.1 in Calm     46% 0.000 in
21:04 48.0 °F 28.0 °F 30.1 in Calm     46% 0.000 in
21:09 47.0 °F 28.0 °F 30.1 in Calm     47% 0.000 in
21:14 47.0 °F 28.0 °F 30.2 in Calm     49% 0.000 in
21:18 46.0 °F 29.0 °F 30.2 in Calm     50% 0.000 in
21:24 46.0 °F 29.0 °F 30.2 in Calm     51% 0.000 in
21:29 45.0 °F 28.0 °F 30.2 in Calm     52% 0.000 in
21:34 45.0 °F 29.0 °F 30.2 in Calm     54% 0.000 in
21:39 44.0 °F 29.0 °F 30.2 in Calm     55% 0.000 in
21:44 44.0 °F 29.0 °F 30.2 in Calm     56% 0.000 in
21:49 44.0 °F 29.0 °F 30.2 in Calm     56% 0.000 in
21:54 43.0 °F 29.0 °F 30.2 in Calm     58% 0.000 in
21:59 43.0 °F 30.0 °F 30.2 in Calm     60% 0.000 in
22:04 43.0 °F 30.0 °F 30.2 in Calm     60% 0.000 in
22:09 42.0 °F 30.0 °F 30.2 in Calm     61% 0.000 in
22:14 42.0 °F 30.0 °F 30.2 in Calm     63% 0.000 in
22:19 42.0 °F 30.0 °F 30.2 in Calm     63% 0.000 in
22:24 41.0 °F 30.0 °F 30.2 in Calm     64% 0.000 in
22:29 41.0 °F 30.0 °F 30.2 in Calm     64% 0.000 in
22:34 41.0 °F 30.0 °F 30.2 in Calm     65% 0.000 in
22:39 41.0 °F 30.0 °F 30.2 in Calm     66% 0.000 in
22:44 40.0 °F 30.0 °F 30.2 in Calm     66% 0.000 in
22:49 40.0 °F 30.0 °F 30.2 in Calm     67% 0.000 in
22:54 40.0 °F 30.0 °F 30.2 in Calm     67% 0.000 in
22:59 40.0 °F 30.0 °F 30.2 in Calm     67% 0.000 in
23:04 39.0 °F 29.0 °F 30.2 in Calm     68% 0.000 in
23:09 39.0 °F 30.0 °F 30.2 in Calm     70% 0.000 in
23:14 39.0 °F 30.0 °F 30.2 in Calm     70% 0.000 in
23:19 39.0 °F 30.0 °F 30.2 in Calm     71% 0.000 in
23:24 39.0 °F 30.0 °F 30.2 in Calm     71% 0.000 in
23:29 38.0 °F 30.0 °F 30.2 in Calm     72% 0.000 in
23:34 38.0 °F 30.0 °F 30.2 in Calm     73% 0.000 in
23:39 38.0 °F 30.0 °F 30.2 in Calm     73% 0.000 in
23:44 38.0 °F 30.0 °F 30.2 in Calm     74% 0.000 in
23:49 38.0 °F 30.0 °F 30.2 in Calm     74% 0.000 in
23:54 37.0 °F 30.0 °F 30.2 in Calm     74% 0.000 in
23:59 37.0 °F 30.0 °F 30.2 in Calm     76% 0.000 in
East Ellijay Weather
Compliments of Weather Underground - 2 mb